| time (UTC) | temp F | wind direction | speed MPH | gust MPH | rain 1hr in | rain 24hr in | rain mn in | humidity % | barometer mb |
| 20260503223549 | 88 | 85 | 4.0 | 7.0 | 0.00 | 0.00 | 0.00 | 33 | 995.9 |
| 20260503223009 | 88 | 236 | 2.0 | 6.0 | 0.00 | 0.00 | 0.00 | 30 | 996.0 |
| 20260503222558 | 88 | 60 | 3.0 | 6.0 | 0.00 | 0.00 | 0.00 | 31 | 996.0 |
| 20260503222047 | 88 | 355 | 0.0 | 6.0 | 0.00 | 0.00 | 0.00 | 30 | 996.1 |
| 20260503221508 | 88 | 338 | 4.0 | 6.0 | 0.00 | 0.00 | 0.00 | 31 | 996.2 |
| 20260503221103 | 88 | 55 | 3.0 | 8.0 | 0.00 | 0.00 | 0.00 | 31 | 996.3 |
| 20260503220547 | 88 | 360 | 4.0 | 8.0 | 0.00 | 0.00 | 0.00 | 32 | 996.4 |
| 20260503220006 | 88 | 337 | 2.0 | 5.0 | 0.00 | 0.00 | 0.00 | 32 | 996.6 |
| 20260503215555 | 88 | 50 | 2.0 | 9.0 | 0.00 | 0.00 | 0.00 | 33 | 996.6 |
| 20260503215041 | 87 | 48 | 4.0 | 9.0 | 0.00 | 0.00 | 0.00 | 34 | 996.8 |
| 20260503214502 | 87 | 9 | 1.0 | 7.0 | 0.00 | 0.00 | 0.00 | 38 | 996.9 |
| 20260503214053 | 87 | 300 | 4.0 | 7.0 | 0.00 | 0.00 | 0.00 | 38 | 997.0 |
| 20260503213542 | 87 | 252 | 3.0 | 7.0 | 0.00 | 0.00 | 0.00 | 36 | 997.0 |
| 20260503213016 | 86 | 329 | 1.0 | 8.0 | 0.00 | 0.00 | 0.00 | 40 | 997.0 |
| 20260503212602 | 87 | 46 | 3.0 | 8.0 | 0.00 | 0.00 | 0.00 | 38 | 997.1 |
| 20260503212051 | 87 | 292 | 2.0 | 8.0 | 0.00 | 0.00 | 0.00 | 36 | 997.1 |
| 20260503211511 | 86 | 348 | 4.0 | 8.0 | 0.00 | 0.00 | 0.00 | 41 | 997.1 |
| 20260503211102 | 86 | 270 | 1.0 | 7.0 | 0.00 | 0.00 | 0.00 | 35 | 997.2 |
| 20260503210549 | 86 | 49 | 3.0 | 9.0 | 0.00 | 0.00 | 0.00 | 41 | 997.2 |
| 20260503210005 | 86 | 43 | 3.0 | 9.0 | 0.00 | 0.00 | 0.00 | 39 | 997.3 |
| 20260503205555 | 86 | 51 | 2.0 | 9.0 | 0.00 | 0.00 | 0.00 | 37 | 997.3 |
| 20260503205044 | 86 | 331 | 3.0 | 9.0 | 0.00 | 0.00 | 0.00 | 36 | 997.4 |
| 20260503204503 | 86 | 30 | 2.0 | 8.0 | 0.00 | 0.00 | 0.00 | 44 | 997.5 |
| 20260503204053 | 85 | 18 | 1.0 | 10.0 | 0.00 | 0.00 | 0.00 | 40 | 997.6 |
| 20260503203542 | 85 | 275 | 2.0 | 10.0 | 0.00 | 0.00 | 0.00 | 39 | 997.7 |
| 20260503203004 | 85 | 333 | 3.0 | 9.0 | 0.00 | 0.00 | 0.00 | 41 | 997.7 |
| 20260503202555 | 85 | 350 | 5.0 | 9.0 | 0.00 | 0.00 | 0.00 | 41 | 997.8 |
| 20260503202042 | 84 | 300 | 3.0 | 8.0 | 0.00 | 0.00 | 0.00 | 42 | 997.9 |
| 20260503201512 | 83 | 347 | 2.0 | 10.0 | 0.00 | 0.00 | 0.00 | 40 | 997.9 |
| 20260503201105 | 83 | 17 | 3.0 | 10.0 | 0.00 | 0.00 | 0.00 | 47 | 997.9 |
| 20260503200549 | 83 | 14 | 3.0 | 9.0 | 0.00 | 0.00 | 0.00 | 43 | 998.0 |
| 20260503200007 | 83 | 273 | 1.0 | 5.0 | 0.00 | 0.00 | 0.00 | 45 | 998.1 |
| 20260503195558 | 83 | 32 | 3.0 | 7.0 | 0.00 | 0.00 | 0.00 | 47 | 998.2 |
| 20260503195048 | 82 | 87 | 2.0 | 7.0 | 0.00 | 0.00 | 0.00 | 44 | 998.3 |
| 20260503194508 | 82 | 317 | 2.0 | 6.0 | 0.00 | 0.00 | 0.00 | 45 | 998.3 |
| 20260503194058 | 81 | 284 | 2.0 | 6.0 | 0.00 | 0.00 | 0.00 | 45 | 998.4 |
| 20260503193547 | 82 | 295 | 2.0 | 5.0 | 0.00 | 0.00 | 0.00 | 47 | 998.5 |
| 20260503193011 | 81 | 125 | 1.0 | 6.0 | 0.00 | 0.00 | 0.00 | 45 | 998.5 |
| 20260503192555 | 80 | 333 | 3.0 | 6.0 | 0.00 | 0.00 | 0.00 | 47 | 998.6 |
| 20260503192042 | 80 | 328 | 4.0 | 6.0 | 0.00 | 0.00 | 0.00 | 48 | 998.6 |
| 20260503191501 | 80 | 61 | 1.0 | 6.0 | 0.00 | 0.00 | 0.00 | 46 | 998.7 |
| 20260503191051 | 79 | 53 | 2.0 | 5.0 | 0.00 | 0.00 | 0.00 | 51 | 998.7 |
| 20260503190540 | 79 | 82 | 2.0 | 5.0 | 0.00 | 0.00 | 0.00 | 50 | 998.7 |
| 20260503190009 | 79 | 67 | 1.0 | 6.0 | 0.00 | 0.00 | 0.00 | 51 | 998.7 |
| 20260503185556 | 78 | 355 | 1.0 | 4.0 | 0.00 | 0.00 | 0.00 | 48 | 998.7 |
| 20260503185044 | 78 | 355 | 2.0 | 7.0 | 0.00 | 0.00 | 0.00 | 53 | 998.8 |
| 20260503184504 | 78 | 281 | 3.0 | 7.0 | 0.00 | 0.00 | 0.00 | 52 | 999.0 |
| 20260503184052 | 77 | 9 | 1.0 | 7.0 | 0.00 | 0.00 | 0.00 | 52 | 999.0 |
| 20260503183540 | 77 | 273 | 2.0 | 7.0 | 0.00 | 0.00 | 0.00 | 52 | 999.1 |
| 20260503183001 | 77 | 306 | 0.0 | 5.0 | 0.00 | 0.00 | 0.00 | 52 | 999.2 |
| 20260503182554 | 76 | 303 | 2.0 | 4.0 | 0.00 | 0.00 | 0.00 | 56 | 999.3 |
| 20260503182041 | 75 | 61 | 1.0 | 6.0 | 0.00 | 0.00 | 0.00 | 55 | 999.3 |
| 20260503181603 | 75 | 273 | 3.0 | 6.0 | 0.00 | 0.00 | 0.00 | 54 | 999.3 |
| 20260503181049 | 75 | 336 | 3.0 | 7.0 | 0.00 | 0.00 | 0.00 | 54 | 999.4 |
| 20260503180537 | 75 | 290 | 1.0 | 5.0 | 0.00 | 0.00 | 0.00 | 56 | 999.4 |
| 20260503180100 | 74 | 313 | 2.0 | 5.0 | 0.00 | 0.01 | 0.00 | 55 | 999.4 |
| 20260503175546 | 74 | 268 | 2.0 | 6.0 | 0.00 | 0.01 | 0.00 | 59 | 999.4 |
| 20260503175033 | 74 | 289 | 2.0 | 6.0 | 0.00 | 0.01 | 0.00 | 59 | 999.4 |
| 20260503174504 | 73 | 298 | 3.0 | 6.0 | 0.00 | 0.01 | 0.00 | 57 | 999.4 |
| 20260503174053 | 73 | 323 | 3.0 | 7.0 | 0.00 | 0.01 | 0.00 | 57 | 999.5 |
| 20260503173539 | 73 | 300 | 3.0 | 7.0 | 0.00 | 0.01 | 0.00 | 58 | 999.6 |
| 20260503173108 | 73 | 310 | 2.0 | 7.0 | 0.00 | 0.01 | 0.00 | 58 | 999.6 |
| 20260503172553 | 72 | 299 | 3.0 | 7.0 | 0.00 | 0.01 | 0.00 | 60 | 999.6 |
| 20260503172040 | 72 | 36 | 2.0 | 9.0 | 0.00 | 0.01 | 0.00 | 61 | 999.6 |
| 20260503171604 | 72 | 325 | 3.0 | 9.0 | 0.00 | 0.01 | 0.00 | 60 | 999.6 |
| 20260503171051 | 71 | 297 | 2.0 | 8.0 | 0.00 | 0.01 | 0.00 | 61 | 999.6 |
| 20260503170539 | 71 | 349 | 4.0 | 8.0 | 0.00 | 0.01 | 0.00 | 62 | 999.6 |
| 20260503170103 | 71 | 327 | 3.0 | 8.0 | 0.00 | 0.01 | 0.00 | 59 | 999.6 |
| 20260503150551 | 62 | 199 | 0.0 | 0.0 | 0.00 | 0.01 | 0.00 | 83 | 999.8 |
| 20260503131059 | 55 | 211 | 1.0 | 3.0 | 0.00 | 0.01 | 0.00 | 84 | 999.6 |
| 20260503130549 | 55 | 211 | 1.0 | 3.0 | 0.00 | 0.01 | 0.00 | 84 | 999.5 |
| 20260503110539 | 56 | 227 | 0.0 | 0.0 | 0.00 | 0.01 | 0.00 | 85 | 999.9 |
| 20260503081611 | 59 | 227 | 2.0 | 3.0 | 0.00 | 0.01 | 0.00 | 84 | 1000.3 |
| 20260503081050 | 58 | 227 | 2.0 | 3.0 | 0.00 | 0.01 | 0.00 | 84 | 1000.2 |
| 20260503080539 | 58 | 227 | 2.0 | 3.0 | 0.00 | 0.01 | 0.00 | 84 | 1000.2 |
| 20260503072547 | 58 | 227 | 2.0 | 5.0 | 0.00 | 0.01 | 0.00 | 86 | 1000.4 |
| 20260503072037 | 58 | 238 | 1.0 | 4.0 | 0.00 | 0.01 | 0.00 | 86 | 1000.4 |
| 20260503071558 | 58 | 238 | 2.0 | 4.0 | 0.00 | 0.01 | 0.00 | 86 | 1000.3 |
| 20260503071045 | 58 | 237 | 2.0 | 4.0 | 0.00 | 0.01 | 0.00 | 86 | 1000.3 |
| 20260503070536 | 58 | 244 | 2.0 | 4.0 | 0.00 | 0.01 | 0.00 | 85 | 1000.3 |
| 20260503055037 | 58 | 244 | 2.0 | 3.0 | 0.00 | 0.01 | 0.01 | 84 | 1000.4 |
| 20260503054600 | 58 | 245 | 2.0 | 3.0 | 0.00 | 0.01 | 0.01 | 84 | 1000.4 |
| 20260503054049 | 58 | 245 | 1.0 | 3.0 | 0.00 | 0.01 | 0.01 | 84 | 1000.4 |
| 20260503053537 | 58 | 234 | 1.0 | 3.0 | 0.00 | 0.01 | 0.01 | 84 | 1000.4 |
| 20260503053059 | 58 | 294 | 0.0 | 2.0 | 0.00 | 0.01 | 0.01 | 84 | 1000.5 |
| 20260503052547 | 59 | 294 | 1.0 | 2.0 | 0.00 | 0.01 | 0.01 | 83 | 1000.4 |
| 20260503052036 | 59 | 294 | 1.0 | 4.0 | 0.00 | 0.01 | 0.01 | 83 | 1000.5 |
| 20260503051559 | 59 | 294 | 2.0 | 4.0 | 0.00 | 0.01 | 0.01 | 83 | 1000.4 |
| 20260503051048 | 59 | 234 | 2.0 | 3.0 | 0.00 | 0.01 | 0.01 | 82 | 1000.5 |
| 20260503050539 | 59 | 234 | 0.0 | 0.0 | 0.00 | 0.01 | 0.01 | 83 | 1000.4 |
| 20260503050101 | 59 | 302 | 0.0 | 0.0 | 0.00 | 0.01 | 0.01 | 82 | 1000.4 |
| 20260503045547 | 59 | 302 | 0.0 | 0.0 | 0.00 | 0.01 | 0.01 | 82 | 1000.5 |
| 20260503045034 | 59 | 305 | 0.0 | 0.0 | 0.00 | 0.01 | 0.01 | 82 | 1000.3 |
| 20260503044557 | 59 | 305 | 0.0 | 0.0 | 0.00 | 0.01 | 0.01 | 82 | 1000.3 |
| 20260503044046 | 60 | 306 | 0.0 | 0.0 | 0.00 | 0.01 | 0.01 | 82 | 1000.3 |
| 20260503043534 | 60 | 308 | 0.0 | 0.0 | 0.00 | 0.01 | 0.01 | 81 | 1000.3 |
| 20260503043004 | 60 | 308 | 0.0 | 2.0 | 0.00 | 0.01 | 0.01 | 81 | 1000.4 |
| 20260503042555 | 60 | 308 | 0.0 | 3.0 | 0.00 | 0.01 | 0.01 | 81 | 1000.4 |
| 20260503042044 | 60 | 308 | 1.0 | 3.0 | 0.00 | 0.01 | 0.01 | 80 | 1000.4 |
| 20260503041505 | 61 | 275 | 2.0 | 3.0 | 0.00 | 0.01 | 0.01 | 80 | 1000.4 |
| 20260503041056 | 61 | 229 | 0.0 | 0.0 | 0.00 | 0.01 | 0.01 | 79 | 1000.5 |
| 20260503040544 | 61 | 229 | 0.0 | 0.0 | 0.00 | 0.01 | 0.01 | 79 | 1000.5 |
| 20260503040004 | 61 | 229 | 0.0 | 0.0 | 0.00 | 0.01 | 0.01 | 78 | 1000.4 |
| 20260503035555 | 61 | 229 | 0.0 | 0.0 | 0.00 | 0.01 | 0.01 | 78 | 1000.3 |
| 20260503035042 | 62 | 229 | 0.0 | 0.0 | 0.00 | 0.01 | 0.01 | 78 | 1000.2 |
| 20260503034503 | 62 | 229 | 0.0 | 0.0 | 0.00 | 0.01 | 0.01 | 78 | 1000.1 |
| 20260503034054 | 62 | 229 | 0.0 | 0.0 | 0.00 | 0.01 | 0.01 | 77 | 1000.0 |
| 20260503033545 | 62 | 229 | 0.0 | 0.0 | 0.00 | 0.01 | 0.01 | 77 | 999.9 |
| 20260503033103 | 62 | 229 | 0.0 | 0.0 | 0.00 | 0.01 | 0.01 | 77 | 999.9 |
| 20260503032551 | 63 | 229 | 0.0 | 0.0 | 0.00 | 0.01 | 0.01 | 76 | 999.8 |
| 20260503032042 | 63 | 229 | 0.0 | 0.0 | 0.00 | 0.01 | 0.01 | 76 | 999.8 |
| 20260503031502 | 63 | 229 | 0.0 | 0.0 | 0.00 | 0.01 | 0.01 | 75 | 999.7 |
| 20260503031052 | 63 | 229 | 0.0 | 0.0 | 0.00 | 0.01 | 0.01 | 75 | 999.7 |
| 20260503030541 | 63 | 229 | 0.0 | 3.0 | 0.00 | 0.01 | 0.01 | 75 | 999.8 |
| 20260503025550 | 64 | 229 | 0.0 | 4.0 | 0.00 | 0.01 | 0.01 | 74 | 999.8 |
| 20260503025039 | 64 | 229 | 2.0 | 4.0 | 0.00 | 0.01 | 0.01 | 74 | 999.9 |
| 20260503024602 | 64 | 254 | 2.0 | 4.0 | 0.00 | 0.01 | 0.01 | 74 | 999.7 |
| 20260503024054 | 64 | 182 | 1.0 | 8.0 | 0.00 | 0.01 | 0.01 | 73 | 999.8 |
| 20260503023538 | 65 | 242 | 3.0 | 8.0 | 0.00 | 0.01 | 0.01 | 73 | 999.9 |
| 20260503023101 | 65 | 196 | 2.0 | 7.0 | 0.00 | 0.01 | 0.01 | 72 | 999.9 |
| 20260503022549 | 65 | 266 | 3.0 | 13.0 | 0.00 | 0.01 | 0.01 | 72 | 999.9 |
| 20260503022037 | 65 | 263 | 3.0 | 13.0 | 0.00 | 0.01 | 0.01 | 72 | 999.9 |
| 20260503021600 | 66 | 296 | 2.0 | 7.0 | 0.00 | 0.01 | 0.01 | 71 | 1000.0 |
| 20260503021050 | 66 | 192 | 3.0 | 11.0 | 0.00 | 0.01 | 0.01 | 71 | 999.9 |
| 20260503020538 | 67 | 199 | 4.0 | 11.0 | 0.00 | 0.01 | 0.01 | 71 | 1000.0 |
| 20260503020005 | 67 | 202 | 2.0 | 4.0 | 0.00 | 0.01 | 0.01 | 73 | 999.9 |
| 20260503015556 | 67 | 188 | 1.0 | 3.0 | 0.00 | 0.01 | 0.01 | 74 | 999.7 |
| 20260503015045 | 67 | 188 | 0.0 | 1.0 | 0.00 | 0.01 | 0.01 | 73 | 999.5 |
| 20260503014504 | 67 | 188 | 0.0 | 1.0 | 0.00 | 0.01 | 0.01 | 73 | 999.4 |
| 20260503014055 | 67 | 188 | 0.0 | 1.0 | 0.00 | 0.01 | 0.01 | 73 | 999.3 |
| 20260503013544 | 67 | 188 | 0.0 | 2.0 | 0.00 | 0.01 | 0.01 | 71 | 999.4 |
| 20260503013057 | 67 | 188 | 0.0 | 2.0 | 0.00 | 0.01 | 0.01 | 71 | 999.4 |
| 20260503012546 | 67 | 188 | 0.0 | 2.0 | 0.00 | 0.01 | 0.01 | 71 | 999.4 |
| 20260503012033 | 68 | 188 | 0.0 | 2.0 | 0.00 | 0.01 | 0.01 | 72 | 999.5 |
| 20260503011556 | 68 | 188 | 0.0 | 2.0 | 0.00 | 0.01 | 0.01 | 71 | 999.4 |
| 20260503011043 | 68 | 15 | 0.0 | 2.0 | 0.00 | 0.01 | 0.01 | 71 | 999.4 |
| 20260503010531 | 68 | 15 | 0.0 | 3.0 | 0.00 | 0.01 | 0.01 | 71 | 999.4 |
| 20260503010104 | 68 | 15 | 0.0 | 3.0 | 0.00 | 0.01 | 0.01 | 69 | 999.4 |
| 20260503005554 | 67 | 15 | 0.0 | 0.0 | 0.00 | 0.01 | 0.01 | 70 | 999.4 |
| 20260503005040 | 67 | 15 | 0.0 | 0.0 | 0.00 | 0.01 | 0.01 | 71 | 999.3 |
| 20260503004501 | 67 | 15 | 0.0 | 0.0 | 0.00 | 0.01 | 0.01 | 73 | 999.2 |
| 20260503004051 | 67 | 15 | 0.0 | 0.0 | 0.00 | 0.01 | 0.01 | 70 | 999.2 |
| 20260503003540 | 67 | 15 | 0.0 | 0.0 | 0.00 | 0.01 | 0.01 | 71 | 999.2 |
| 20260503003029 | 67 | 15 | 0.0 | 0.0 | 0.00 | 0.01 | 0.01 | 71 | 999.2 |
| 20260503002601 | 68 | 15 | 0.0 | 0.0 | 0.00 | 0.01 | 0.01 | 72 | 999.3 |
| 20260503002049 | 68 | 15 | 0.0 | 0.0 | 0.00 | 0.01 | 0.01 | 69 | 999.3 |
| 20260503001509 | 68 | 15 | 0.0 | 0.0 | 0.00 | 0.01 | 0.01 | 68 | 999.3 |
| 20260503001100 | 68 | 15 | 0.0 | 0.0 | 0.00 | 0.01 | 0.01 | 69 | 999.2 |
| 20260503000547 | 67 | 15 | 0.0 | 2.0 | 0.00 | 0.01 | 0.01 | 68 | 999.3 |
| 20260503000006 | 68 | 15 | 0.0 | 2.0 | 0.00 | 0.01 | 0.01 | 70 | 999.4 |
| 20260502235557 | 68 | 15 | 0.0 | 2.0 | 0.00 | 0.01 | 0.01 | 67 | 999.4 |
| 20260502235046 | 67 | 15 | 0.0 | 3.0 | 0.00 | 0.01 | 0.01 | 68 | 999.5 |
| 20260502234505 | 67 | 15 | 1.0 | 3.0 | 0.00 | 0.01 | 0.01 | 67 | 999.5 |
| 20260502234056 | 68 | 10 | 0.0 | 1.0 | 0.00 | 0.01 | 0.01 | 67 | 999.6 |
| 20260502233544 | 68 | 10 | 0.0 | 5.0 | 0.00 | 0.01 | 0.01 | 68 | 999.6 |
| 20260502233005 | 67 | 9 | 1.0 | 5.0 | 0.00 | 0.01 | 0.01 | 67 | 999.8 |
| 20260502232555 | 68 | 344 | 2.0 | 4.0 | 0.00 | 0.01 | 0.01 | 67 | 999.8 |
| 20260502232043 | 67 | 288 | 2.0 | 4.0 | 0.00 | 0.01 | 0.01 | 66 | 999.9 |
| 20260502231510 | 67 | 9 | 2.0 | 6.0 | 0.00 | 0.01 | 0.01 | 66 | 1000.0 |
| 20260502231104 | 67 | 65 | 3.0 | 6.0 | 0.00 | 0.01 | 0.01 | 67 | 1000.0 |
| 20260502230549 | 67 | 351 | 0.0 | 4.0 | 0.00 | 0.01 | 0.01 | 68 | 1000.1 |
| 20260502230007 | 67 | 186 | 0.0 | 5.0 | 0.00 | 0.01 | 0.01 | 68 | 1000.2 |
| 20260502225554 | 66 | 277 | 1.0 | 5.0 | 0.00 | 0.01 | 0.01 | 65 | 1000.2 |
| 20260502225042 | 66 | 252 | 0.0 | 8.0 | 0.00 | 0.01 | 0.01 | 67 | 1000.2 |
| 20260502224502 | 66 | 290 | 4.0 | 8.0 | 0.00 | 0.01 | 0.01 | 68 | 1000.4 |
| 20260502224054 | 66 | 17 | 2.0 | 6.0 | 0.00 | 0.01 | 0.01 | 67 | 1000.5 |